TimeCST,TemperatureF,Dew PointF,Humidity,Sea Level PressureIn,VisibilityMPH,Wind Direction,Wind SpeedMPH,Gust SpeedMPH,PrecipitationIn,Events,Conditions,WindDirDegrees,DateUTC
12:53 AM,41.0,37.0,86,29.76,3.0,East,13.8,-,0.08,Rain,Light Rain,80,2012-12-20 06:53:00
1:53 AM,39.9,37.9,93,29.75,2.5,ESE,12.7,23.0,0.30,Rain,Light Rain,110,2012-12-20 07:53:00
2:01 AM,39.2,37.4,93,29.72,3.0,ESE,13.8,-,0.03,Rain,Light Rain,110,2012-12-20 08:01:00
2:53 AM,39.9,37.9,93,29.67,4.0,ESE,15.0,21.9,0.04,Rain,Light Rain,120,2012-12-20 08:53:00
3:00 AM,39.2,37.4,93,29.65,4.0,ESE,16.1,24.2,0.01,Rain,Light Rain,120,2012-12-20 09:00:00
3:31 AM,41.0,37.4,87,29.60,4.0,ESE,23.0,29.9,0.02,,Overcast,120,2012-12-20 09:31:00
3:53 AM,41.0,39.0,93,29.61,5.0,East,15.0,25.3,0.03,,Overcast,100,2012-12-20 09:53:00
4:53 AM,42.1,39.9,92,29.53,3.0,ESE,13.8,26.5,0.05,Rain,Light Rain,110,2012-12-20 10:53:00
5:18 AM,42.8,39.2,87,29.48,2.5,ESE,15.0,21.9,0.08,Rain,Light Rain,120,2012-12-20 11:18:00
5:22 AM,42.8,39.2,87,29.47,3.0,ESE,13.8,21.9,0.09,Rain,Light Rain,120,2012-12-20 11:22:00
5:35 AM,42.8,41.0,93,29.47,3.0,ESE,12.7,-,0.13,Rain,Light Rain,120,2012-12-20 11:35:00
5:44 AM,42.8,41.0,93,29.46,2.5,ESE,13.8,23.0,0.17,Rain,Rain,120,2012-12-20 11:44:00
5:53 AM,43.0,41.0,93,29.47,2.5,ESE,17.3,25.3,0.20,Rain,Light Rain,120,2012-12-20 11:53:00
6:01 AM,42.8,41.0,93,29.46,3.0,ESE,15.0,24.2,0.01,Rain,Light Rain,120,2012-12-20 12:01:00
6:53 AM,44.1,42.1,93,29.45,5.0,SE,16.1,24.2,0.11,Rain,Light Rain,130,2012-12-20 12:53:00
7:53 AM,44.1,42.1,93,29.36,4.0,ESE,21.9,28.8,0.04,Rain,Light Rain,120,2012-12-20 13:53:00
8:09 AM,44.6,42.8,93,29.33,4.0,ESE,23.0,33.4,0.00,,Overcast,120,2012-12-20 14:09:00
8:53 AM,44.1,42.1,93,29.27,6.0,ESE,21.9,38.0,0.01,,Overcast,110,2012-12-20 14:53:00
9:53 AM,45.0,43.0,93,29.29,7.0,SE,20.7,28.8,N/A,,Unknown,130,2012-12-20 15:53:00
10:07 AM,46.4,42.8,87,29.25,7.0,SE,17.3,28.8,N/A,,Overcast,130,2012-12-20 16:07:00
10:53 AM,46.9,44.1,90,29.21,7.0,SE,11.5,23.0,N/A,,Overcast,130,2012-12-20 16:53:00
11:53 AM,48.0,46.9,96,29.14,7.0,SE,13.8,20.7,0.00,Rain,Light Rain,130,2012-12-20 17:53:00
12:10 PM,48.2,46.4,93,29.11,8.0,SE,15.0,21.9,0.01,Rain,Light Rain,140,2012-12-20 18:10:00
12:53 PM,51.1,48.9,92,29.07,10.0,SSE,12.7,23.0,0.02,,Overcast,150,2012-12-20 18:53:00
1:29 PM,48.2,46.4,93,29.08,9.0,SSW,25.3,39.1,0.01,Rain,Light Rain,210,2012-12-20 19:29:00
2:31 PM,46.4,42.8,87,29.11,10.0,SW,21.9,28.8,0.03,,Overcast,230,2012-12-20 20:31:00
2:53 PM,45.0,37.9,76,29.12,10.0,SSW,20.7,31.1,0.03,,Overcast,210,2012-12-20 20:53:00
3:53 PM,42.1,34.0,73,29.13,10.0,SSW,16.1,32.2,N/A,,Scattered Clouds,200,2012-12-20 21:53:00
4:53 PM,39.9,33.1,77,29.14,10.0,SSW,17.3,24.2,N/A,,Overcast,200,2012-12-20 22:53:00
5:50 PM,37.4,33.8,87,29.13,10.0,South,12.7,20.7,N/A,,Overcast,180,2012-12-20 23:50:00
5:53 PM,37.9,33.1,83,29.13,10.0,South,10.4,20.7,N/A,,Overcast,180,2012-12-20 23:53:00
6:53 PM,36.0,33.1,89,29.16,10.0,SSW,9.2,-,0.00,,Overcast,200,2012-12-21 00:53:00
7:15 PM,35.6,33.8,93,29.16,6.0,WSW,9.2,-,0.00,,Overcast,240,2012-12-21 01:15:00
7:53 PM,34.0,33.1,96,29.21,3.0,WNW,11.5,-,0.02,Snow,Light Snow,300,2012-12-21 01:53:00
8:35 PM,33.8,32.0,93,29.21,2.0,WNW,16.1,23.0,0.01,Snow,Light Snow,300,2012-12-21 02:35:00
8:45 PM,33.8,32.0,93,29.22,1.8,WNW,18.4,24.2,0.01,Snow,Light Snow,300,2012-12-21 02:45:00
8:53 PM,34.0,32.0,92,29.24,2.0,WNW,19.6,24.2,0.01,Snow,Light Snow,300,2012-12-21 02:53:00
9:16 PM,33.8,32.0,93,29.24,1.5,WNW,19.6,26.5,0.01,Snow,Light Snow,300,2012-12-21 03:16:00
9:53 PM,34.0,32.0,92,29.28,1.0,WNW,23.0,34.5,0.02,Snow,Light Snow,300,2012-12-21 03:53:00
10:24 PM,33.8,32.0,93,29.29,2.0,WNW,23.0,33.4,0.00,Snow,Light Snow,300,2012-12-21 04:24:00
10:27 PM,33.8,32.0,93,29.29,1.8,WNW,20.7,33.4,0.00,Snow,Light Snow,290,2012-12-21 04:27:00
10:53 PM,34.0,30.9,89,29.32,1.5,WNW,25.3,33.4,0.00,Snow,Light Snow,290,2012-12-21 04:53:00
11:53 PM,34.0,32.0,92,29.36,1.2,WNW,25.3,33.4,0.00,Snow,Light Snow,290,2012-12-21 05:53:00